Starlink 11668

operational
NORAD ID: 63557 Int'l Des: 2025-075 Owner: SPXS Country: US Constellation: starlink
LEOCIRCULAR

About Starlink 11668

Description loading...

Live Position

Loading 3D Globe...

Upcoming Passes

Altitude History

Altitude vs Time

uPlot chart will show altitude changes over time

Two-Line Element Set

1 63557U 25075K 25303.77999172 .00371704 00000-0 27444-2 0 9994
2 63557 42.9986 217.1713 0005560 291.9183 68.1093 15.71076316 32815
Epoch: Oct 30, 2025 • Age: 9 hours

Current Status

Altitude 362.3 km
Velocity 7.69 km/s
Sub-Earth Point -37.42°S, 66.44°E
Launch Date Apr 13, 2025
Age 0.5 years
Type internet

Technical Details

Classification Payload
Mass 960.00 kg
Dry Mass 910.00 kg
Total Mass 960.00 kg
Length 0.30 m
Diameter 4.10 m
Span 29.00 m
Shape Box + pan
Manufacturer SPXS
Bus Type Starlink V2MD
Phase Status In Orbit
Owner/State SPXS/US

Large Constellations

Loading constellations...